| time (UTC) | temp C | wind direction | speed KPH | gust KPH | rain 1hr cm | rain 24hr cm | rain mn cm | humidity % | barometer mb |
| 20260502163032 | 11 | 188 | 4.8 | 14.5 | 0.00 | 0.10 | 0.10 | 75 | 1013.8 |
| 20260502161534 | 11 | 159 | 4.8 | 12.9 | 0.00 | 0.10 | 0.10 | 75 | 1013.8 |
| 20260502151537 | 11 | 167 | 4.8 | 11.3 | 0.00 | 0.10 | 0.10 | 75 | 1014.3 |
| 20260502123043 | 8 | 0 | 0.0 | 0.0 | 0.05 | 0.10 | 0.10 | 92 | 1014.2 |
| 20260502121532 | 8 | 0 | 0.0 | 0.0 | 0.08 | 0.10 | 0.10 | 93 | 1015.0 |
| 20260502114530 | 8 | 0 | 0.0 | 0.0 | 0.03 | 0.05 | 0.05 | 92 | 1015.4 |
| 20260502113035 | 8 | 0 | 0.0 | 3.2 | 0.03 | 0.05 | 0.05 | 92 | 1015.3 |
| 20260502111544 | 8 | 0 | 0.0 | 1.6 | 0.00 | 0.03 | 0.03 | 92 | 1015.5 |
| 20260502110035 | 8 | 0 | 0.0 | 3.2 | 0.00 | 0.03 | 0.03 | 91 | 1015.2 |
| 20260502104534 | 7 | 0 | 0.0 | 0.0 | 0.03 | 0.03 | 0.03 | 91 | 1015.1 |
| 20260502103032 | 7 | 0 | 0.0 | 0.0 | 0.03 | 0.03 | 0.03 | 91 | 1014.4 |
| 20260502101530 | 7 | 0 | 0.0 | 0.0 | 0.03 | 0.03 | 0.03 | 90 | 1014.3 |
| 20260502091532 | 8 | 0 | 0.0 | 3.2 | 0.00 | 0.00 | 0.00 | 87 | 1013.9 |
| 20260502070037 | 8 | 0 | 0.0 | 1.6 | 0.00 | 0.00 | 0.00 | 80 | 1014.2 |
| 20260502064534 | 8 | 103 | 0.0 | 3.2 | 0.00 | 0.00 | 0.00 | 79 | 1014.2 |
| 20260502063030 | 8 | 0 | 0.0 | 0.0 | 0.00 | 0.00 | 0.00 | 78 | 1014.1 |
| 20260502061530 | 9 | 0 | 0.0 | 0.0 | 0.00 | 0.00 | 0.00 | 78 | 1014.2 |
| 20260502060031 | 9 | 0 | 0.0 | 4.8 | 0.00 | 0.00 | 0.00 | 76 | 1014.3 |
| 20260502054534 | 9 | 136 | 1.6 | 6.4 | 0.00 | 0.00 | 0.00 | 76 | 1014.2 |
| 20260502053047 | 10 | 0 | 0.0 | 4.8 | 0.00 | 0.00 | 0.00 | 75 | 1014.4 |
| 20260502051534 | 10 | 130 | 1.6 | 6.4 | 0.00 | 0.00 | 0.00 | 73 | 1014.4 |
| 20260502050035 | 10 | 188 | 1.6 | 8.0 | 0.00 | 0.00 | 0.00 | 73 | 1014.6 |
| 20260502044535 | 10 | 106 | 1.6 | 6.4 | 0.00 | 0.00 | 0.00 | 73 | 1014.5 |
| 20260502043036 | 10 | 145 | 0.0 | 9.7 | 0.00 | 0.00 | 0.00 | 73 | 1014.5 |
| 20260502041538 | 10 | 161 | 1.6 | 4.8 | 0.00 | 0.00 | 0.00 | 74 | 1014.5 |
| 20260502040034 | 10 | 140 | 0.0 | 9.7 | 0.00 | 0.00 | 0.00 | 73 | 1014.5 |
| 20260502034530 | 10 | 0 | 1.6 | 9.7 | 0.00 | 0.00 | 0.00 | 73 | 1014.5 |
| 20260502033040 | 10 | 126 | 1.6 | 8.0 | 0.00 | 0.00 | 0.00 | 73 | 1014.6 |
| 20260502031533 | 10 | 159 | 1.6 | 6.4 | 0.00 | 0.00 | 0.00 | 72 | 1014.6 |
| 20260502030037 | 10 | 145 | 1.6 | 9.7 | 0.00 | 0.00 | 0.00 | 71 | 1014.6 |
| 20260502024532 | 10 | 136 | 3.2 | 12.9 | 0.00 | 0.00 | 0.00 | 71 | 1014.8 |
| 20260502023036 | 11 | 144 | 3.2 | 11.3 | 0.00 | 0.00 | 0.00 | 70 | 1014.7 |
| 20260502021534 | 11 | 0 | 1.6 | 12.9 | 0.00 | 0.00 | 0.00 | 70 | 1014.7 |
| 20260502020038 | 11 | 215 | 4.8 | 12.9 | 0.00 | 0.00 | 0.00 | 68 | 1014.8 |
| 20260502014529 | 11 | 161 | 1.6 | 11.3 | 0.00 | 0.00 | 0.00 | 68 | 1014.7 |
| 20260502013035 | 11 | 170 | 3.2 | 11.3 | 0.00 | 0.00 | 0.00 | 66 | 1014.6 |
| 20260502011531 | 11 | 136 | 6.4 | 19.3 | 0.00 | 0.00 | 0.00 | 65 | 1014.5 |
| 20260502010033 | 12 | 139 | 3.2 | 19.3 | 0.00 | 0.00 | 0.00 | 62 | 1014.4 |
| 20260502004530 | 12 | 140 | 3.2 | 14.5 | 0.00 | 0.00 | 0.00 | 58 | 1014.2 |
| 20260502003031 | 12 | 114 | 4.8 | 16.1 | 0.00 | 0.00 | 0.00 | 56 | 1014.0 |
| 20260502001532 | 12 | 0 | 0.0 | 1.6 | 0.00 | 0.00 | 0.00 | 57 | 1013.7 |
| 20260502000034 | 13 | 0 | 1.6 | 8.0 | 0.00 | 0.00 | 0.00 | 53 | 1013.3 |
| 20260501234537 | 13 | 154 | 0.0 | 6.4 | 0.00 | 0.00 | 0.00 | 53 | 1013.1 |
| 20260501233032 | 14 | 0 | 0.0 | 1.6 | 0.00 | 0.00 | 0.00 | 47 | 1012.8 |
| 20260501231531 | 15 | 0 | 0.0 | 3.2 | 0.00 | 0.00 | 0.00 | 43 | 1012.7 |
| 20260501230032 | 15 | 0 | 0.0 | 4.8 | 0.00 | 0.00 | 0.00 | 42 | 1012.7 |
| 20260501224545 | 16 | 0 | 0.0 | 4.8 | 0.00 | 0.00 | 0.00 | 40 | 1012.6 |
| 20260501223038 | 16 | 0 | 0.0 | 8.0 | 0.00 | 0.00 | 0.00 | 43 | 1012.5 |
| 20260501221550 | 16 | 279 | 0.0 | 6.4 | 0.00 | 0.00 | 0.00 | 41 | 1012.4 |
| 20260501220033 | 16 | 296 | 1.6 | 12.9 | 0.00 | 0.00 | 0.00 | 41 | 1012.5 |
| 20260501214535 | 16 | 333 | 4.8 | 16.1 | 0.00 | 0.00 | 0.00 | 42 | 1012.6 |
| 20260501213035 | 16 | 272 | 0.0 | 17.7 | 0.00 | 0.00 | 0.00 | 44 | 1012.6 |
| 20260501211542 | 16 | 0 | 1.6 | 14.5 | 0.00 | 0.00 | 0.00 | 42 | 1012.4 |
| 20260501210032 | 16 | 232 | 1.6 | 8.0 | 0.00 | 0.00 | 0.00 | 40 | 1012.4 |
| 20260501204535 | 16 | 234 | 3.2 | 12.9 | 0.00 | 0.00 | 0.00 | 42 | 1012.4 |
| 20260501203036 | 16 | 284 | 1.6 | 14.5 | 0.00 | 0.00 | 0.00 | 44 | 1012.4 |
| 20260501201535 | 16 | 290 | 3.2 | 17.7 | 0.00 | 0.00 | 0.00 | 42 | 1012.2 |
| 20260501200034 | 16 | 295 | 3.2 | 14.5 | 0.00 | 0.00 | 0.00 | 40 | 1012.3 |
| 20260501194530 | 16 | 306 | 1.6 | 9.7 | 0.00 | 0.00 | 0.00 | 43 | 1012.3 |
| 20260501193044 | 16 | 263 | 3.2 | 11.3 | 0.00 | 0.00 | 0.00 | 41 | 1012.2 |
| 20260501191535 | 16 | 186 | 4.8 | 17.7 | 0.00 | 0.00 | 0.00 | 41 | 1012.8 |
| 20260501190035 | 16 | 269 | 3.2 | 20.9 | 0.00 | 0.00 | 0.00 | 41 | 1012.9 |
| 20260501184536 | 16 | 254 | 3.2 | 16.1 | 0.00 | 0.00 | 0.00 | 43 | 1013.1 |
| 20260501183032 | 16 | 331 | 4.8 | 14.5 | 0.00 | 0.00 | 0.00 | 43 | 1013.1 |
| 20260501181536 | 16 | 328 | 11.3 | 17.7 | 0.00 | 0.00 | 0.00 | 42 | 1013.3 |
| 20260501180038 | 15 | 299 | 3.2 | 17.7 | 0.00 | 0.00 | 0.00 | 41 | 1013.2 |
| 20260501174539 | 15 | 264 | 6.4 | 16.1 | 0.00 | 0.00 | 0.00 | 44 | 1013.1 |
| 20260501173032 | 14 | 331 | 6.4 | 17.7 | 0.00 | 0.00 | 0.00 | 46 | 1013.2 |
| 20260501171532 | 13 | 312 | 4.8 | 12.9 | 0.00 | 0.00 | 0.00 | 52 | 1013.5 |